TimeCDT,TemperatureF,Dew PointF,Humidity,Sea Level PressureIn,VisibilityMPH,Wind Direction,Wind SpeedMPH,Gust SpeedMPH,PrecipitationIn,Events,Conditions,WindDirDegrees,DateUTC
12:53 AM,45.0,39.0,80,29.95,10.0,NW,9.2,-,N/A,,Overcast,320,2013-05-05 05:53:00
1:53 AM,42.1,39.0,89,29.93,10.0,WNW,5.8,-,N/A,,Clear,300,2013-05-05 06:53:00
2:53 AM,41.0,39.0,93,29.94,10.0,WNW,4.6,-,N/A,,Clear,300,2013-05-05 07:53:00
3:53 AM,41.0,39.0,93,29.94,10.0,NW,8.1,-,N/A,,Scattered Clouds,310,2013-05-05 08:53:00
4:53 AM,42.1,39.9,92,29.95,10.0,WNW,10.4,-,N/A,,Mostly Cloudy,300,2013-05-05 09:53:00
5:53 AM,42.1,39.0,89,29.96,-9999.0,NW,10.4,-,N/A,,Overcast,310,2013-05-05 10:53:00
6:53 AM,43.0,39.9,89,29.97,10.0,NNW,10.4,-,N/A,,Overcast,330,2013-05-05 11:53:00
7:53 AM,45.0,39.9,82,29.99,10.0,NW,10.4,-,N/A,,Mostly Cloudy,320,2013-05-05 12:53:00
8:16 AM,46.4,41.0,81,30.00,10.0,NNW,11.5,-,N/A,,Overcast,330,2013-05-05 13:16:00
8:53 AM,48.9,41.0,74,30.01,10.0,NNW,12.7,21.9,N/A,,Mostly Cloudy,340,2013-05-05 13:53:00
9:53 AM,52.0,39.9,63,30.01,10.0,North,11.5,-,N/A,,Overcast,360,2013-05-05 14:53:00
10:53 AM,53.1,39.9,61,30.03,10.0,NNW,13.8,20.7,N/A,,Overcast,330,2013-05-05 15:53:00
11:53 AM,57.0,41.0,55,30.03,10.0,North,9.2,18.4,N/A,,Scattered Clouds,360,2013-05-05 16:53:00
12:53 PM,57.2,39.2,51,30.01,10.0,NNW,8.1,18.4,N/A,,Partly Cloudy,340,2013-05-05 17:53:00
1:53 PM,62.1,39.9,44,30.00,10.0,WNW,12.7,17.3,N/A,,Mostly Cloudy,290,2013-05-05 18:53:00
2:53 PM,62.1,37.9,41,29.99,10.0,NW,12.7,17.3,N/A,,Mostly Cloudy,310,2013-05-05 19:53:00
3:53 PM,64.0,39.0,40,29.97,10.0,WNW,10.4,-,N/A,,Mostly Cloudy,300,2013-05-05 20:53:00
4:53 PM,62.1,37.9,41,29.97,10.0,West,10.4,-,N/A,,Overcast,280,2013-05-05 21:53:00
5:53 PM,62.1,39.0,43,29.96,10.0,WNW,5.8,-,0.00,Rain,Light Rain,290,2013-05-05 22:53:00
6:53 PM,59.0,44.6,59,29.97,10.0,North,6.9,-,N/A,,Overcast,360,2013-05-05 23:53:00
7:53 PM,59.0,43.0,55,29.98,10.0,NNW,6.9,-,N/A,,Overcast,330,2013-05-06 00:53:00
8:53 PM,57.9,46.0,65,29.98,10.0,NNE,3.5,-,N/A,,Overcast,20,2013-05-06 01:53:00
9:53 PM,57.9,46.9,67,29.98,10.0,Calm,Calm,-,N/A,,Overcast,0,2013-05-06 02:53:00
10:53 PM,57.0,46.9,69,29.98,10.0,Calm,Calm,-,N/A,,Overcast,0,2013-05-06 03:53:00
11:53 PM,55.9,48.0,75,29.97,10.0,SSW,3.5,-,N/A,,Overcast,210,2013-05-06 04:53:00